Weather History for KAVP - January, 2014

Change the Weather History Date:

Saturday, January 18, 2014

  Actual Average Record
Temperature  
Mean Temperature 27 °F 26 °F  
Max Temperature 32 °F 33 °F 60 °F (1990)
Min Temperature 21 °F 18 °F -7 °F (1982)
Degree Days  
Heating Degree Days 38 39  
Month to date heating degree days 701 701  
Since 1 July heating degree days 3015 3079  
Cooling Degree Days 0 0  
Month to date cooling degree days 0 0  
Year to date cooling degree days 0 0  
Moisture  
Dew Point 21 °F    
Average Humidity 80    
Maximum Humidity 92    
Minimum Humidity 68    
Precipitation  
Precipitation 0.13 in 0.07 in 1.33 in (2006)
Month to date precipitation 1.97 1.33  
Year to date precipitation 1.97 1.33  
Sea Level Pressure  
Sea Level Pressure 29.79 in    
Wind  
Wind Speed 8 mph (WSW)    
Max Wind Speed 18 mph    
Max Gust Speed 23 mph    
Visibility 4 miles    
Events Fog , Snow    
T = Trace of Precipitation, MM = Missing Value Source: NWS Daily Summary

Daily Weather History Graph

Daily Weather History Graph

Search for Another Location

Airport or City:

Trip Planner

Search our weather history database for the weather conditions in past years. The results will help you decide how hot, cold, wet, or windy it might be!

Date:

Astronomy

Jan. 18, 2014 Rise Set
Actual Time 7:25 AM EST 5:02 PM EST
Civil Twilight 6:54 AM EST 5:32 PM EST
Nautical Twilight 6:20 AM EST 6:06 PM EST
Astronomical Twilight 5:47 AM EST 6:39 PM EST
Moon 7:44 PM EST (1/18) 8:21 AM EST (1/18)
Length of Visible Light 10h 37m
Length of Day
9h 36m
Waning Gibbous, 94% of the Moon is Illuminated
Jan 18
Waning Gibbous
Jan 24
Last Quarter
Jan 30
New
Feb 6
First Quarter
Feb 14
Full

Hourly Weather History & Observations

Time (EST) Temp. Windchill Dew Point Humidity Pressure Visibility Wind Dir Wind Speed Gust Speed Precip Events Conditions
12:54 AM 28.0 °F 24.2 °F 23.0 °F 81% 29.82 in 7.0 mi Variable 3.5 mph - N/A   Clear
1:54 AM 30.9 °F 24.3 °F 23.0 °F 72% 29.79 in 8.0 mi ENE 6.9 mph - N/A   Mostly Cloudy
2:54 AM 30.9 °F 27.5 °F 24.1 °F 76% 29.78 in 8.0 mi Variable 3.5 mph - N/A   Clear
3:54 AM 28.9 °F 19.8 °F 24.1 °F 82% 29.78 in 7.0 mi West 10.4 mph - N/A   Overcast
4:11 AM 28.4 °F 21.2 °F 24.8 °F 86% 29.76 in 2.5 mi WSW 6.9 mph - 0.00 in Snow Light Snow
4:19 AM 28.4 °F 20.4 °F 24.8 °F 86% 29.76 in 1.2 mi SSW 8.1 mph - 0.00 in Snow Light Snow
4:54 AM 28.0 °F 22.8 °F 26.1 °F 92% 29.78 in 1.0 mi SW 4.6 mph - 0.01 in Snow Light Snow
4:58 AM 28.4 °F - 26.6 °F 93% 29.76 in 0.8 mi Calm Calm - 0.00 in Snow Light Snow
5:11 AM 28.4 °F 23.3 °F 26.6 °F 93% 29.75 in 1.0 mi Variable 4.6 mph - 0.01 in Snow Light Snow
5:27 AM 28.4 °F 22.2 °F 26.6 °F 93% 29.74 in 0.8 mi Variable 5.8 mph - 0.02 in Snow Light Snow
5:43 AM 28.4 °F 22.2 °F 26.6 °F 93% 29.74 in 1.0 mi Variable 5.8 mph - 0.03 in Snow Light Snow
5:54 AM 28.0 °F 20.0 °F 27.0 °F 96% 29.77 in 1.5 mi SSW 8.1 mph - 0.03 in Snow Light Snow
6:52 AM 28.4 °F 23.3 °F 26.6 °F 93% 29.74 in 1.2 mi WSW 4.6 mph - 0.01 in Snow Light Snow
6:54 AM 28.0 °F 22.8 °F 27.0 °F 96% 29.76 in 1.0 mi WSW 4.6 mph - 0.01 in Snow Light Snow
7:36 AM 28.4 °F 22.2 °F 26.6 °F 93% 29.73 in 1.0 mi West 5.8 mph - 0.02 in Snow Light Snow
7:43 AM 28.4 °F 23.3 °F 26.6 °F 93% 29.74 in 0.8 mi SW 4.6 mph - 0.02 in Snow Light Snow
7:54 AM 28.9 °F 22.8 °F 27.0 °F 92% 29.76 in 0.8 mi SW 5.8 mph - 0.02 in Snow Light Snow
8:05 AM 28.4 °F 21.2 °F 26.6 °F 93% 29.74 in 1.0 mi WSW 6.9 mph - 0.00 in Snow Light Snow
8:14 AM 28.4 °F 20.4 °F 26.6 °F 93% 29.74 in 0.5 mi SW 8.1 mph - 0.01 in Fog , Snow Snow
8:22 AM 28.4 °F 22.2 °F 26.6 °F 93% 29.74 in 0.2 mi SW 5.8 mph - 0.01 in Fog , Snow Snow
8:29 AM 28.4 °F 23.3 °F 26.6 °F 93% 29.75 in 0.5 mi SW 4.6 mph - 0.02 in Fog , Snow Snow
8:54 AM 28.0 °F 20.0 °F 26.1 °F 92% 29.79 in 0.8 mi WSW 8.1 mph - 0.03 in Snow Light Snow
9:06 AM 28.4 °F 22.2 °F 26.6 °F 93% 29.77 in 0.8 mi SW 5.8 mph - 0.00 in Snow Light Snow
9:36 AM 28.4 °F 21.2 °F 24.8 °F 86% 29.78 in 1.8 mi SW 6.9 mph - 0.01 in Snow Light Snow
9:38 AM 28.4 °F 20.4 °F 24.8 °F 86% 29.78 in 2.0 mi SW 8.1 mph - 0.01 in Snow Light Snow
9:42 AM 28.4 °F 21.2 °F 24.8 °F 86% 29.78 in 3.0 mi SW 6.9 mph - 0.01 in Snow Light Snow
9:54 AM 28.0 °F 20.8 °F 25.0 °F 88% 29.81 in 4.0 mi WSW 6.9 mph - 0.01 in Snow Light Snow
10:22 AM 28.4 °F 21.2 °F 24.8 °F 86% 29.78 in 2.0 mi SW 6.9 mph - 0.00 in Snow Light Snow
10:31 AM 28.4 °F 22.2 °F 24.8 °F 86% 29.78 in 2.0 mi SW 5.8 mph - 0.00 in Snow Light Snow
10:54 AM 28.0 °F 20.8 °F 25.0 °F 88% 29.80 in 3.0 mi SW 6.9 mph - 0.01 in Snow Light Snow
10:59 AM 28.4 °F 19.7 °F 24.8 °F 86% 29.77 in 2.5 mi SW 9.2 mph - 0.00 in Snow Light Snow
11:04 AM 28.4 °F 21.2 °F 24.8 °F 86% 29.77 in 1.8 mi SW 6.9 mph - 0.00 in Snow Light Snow
11:25 AM 28.4 °F 19.7 °F 24.8 °F 86% 29.76 in 1.0 mi WSW 9.2 mph - 0.00 in Snow Light Snow
11:32 AM 28.4 °F 18.5 °F 24.8 °F 86% 29.76 in 1.2 mi WSW 11.5 mph - 0.00 in Snow Light Snow
11:46 AM 26.6 °F 17.5 °F 23.0 °F 86% 29.75 in 1.5 mi SW 9.2 mph - 0.00 in Snow Light Snow
11:54 AM 27.0 °F 18.0 °F 23.0 °F 85% 29.78 in 1.5 mi WSW 9.2 mph - 0.00 in Snow Light Snow
12:54 PM 25.0 °F 13.6 °F 21.0 °F 85% 29.77 in 2.5 mi SW 12.7 mph - 0.01 in Snow Light Snow
1:03 PM 24.8 °F 16.1 °F 21.2 °F 86% 29.75 in 3.0 mi SW 8.1 mph - 0.00 in Snow Light Snow
1:52 PM 24.8 °F 16.9 °F 19.4 °F 80% 29.75 in 5.0 mi SW 6.9 mph - 0.00 in Snow Light Snow
1:54 PM 25.0 °F 20.7 °F 19.9 °F 81% 29.78 in 5.0 mi WSW 3.5 mph - 0.00 in Snow Light Snow
2:30 PM 26.6 °F 15.2 °F 17.6 °F 69% 29.75 in 9.0 mi NW 13.8 mph 21.9 mph 0.00 in   Overcast
2:39 PM 26.6 °F 14.7 °F 17.6 °F 69% 29.76 in 9.0 mi WNW 15.0 mph - 0.00 in Snow Light Snow
2:54 PM 26.1 °F 15.0 °F 18.0 °F 71% 29.79 in 7.0 mi NW 12.7 mph - 0.00 in   Overcast
3:17 PM 24.8 °F 12.4 °F 17.6 °F 74% 29.78 in 6.0 mi NW 15.0 mph - 0.00 in Snow Light Snow
3:24 PM 24.8 °F 12.4 °F 17.6 °F 74% 29.78 in 7.0 mi WNW 15.0 mph - 0.00 in   Overcast
3:54 PM 25.0 °F 13.1 °F 17.1 °F 72% 29.83 in 7.0 mi WNW 13.8 mph - 0.00 in   Overcast
4:05 PM 24.8 °F 14.0 °F 17.6 °F 74% 29.80 in 5.0 mi WNW 11.5 mph - 0.00 in Snow Light Snow
4:30 PM 23.0 °F 14.7 °F 17.6 °F 80% 29.81 in 1.8 mi WSW 6.9 mph - 0.00 in Snow Light Snow
4:54 PM 23.0 °F 18.4 °F 17.1 °F 78% 29.85 in 1.8 mi WSW 3.5 mph - 0.00 in Snow Light Snow
5:09 PM 21.2 °F 16.4 °F 17.6 °F 86% 29.82 in 2.0 mi WSW 3.5 mph - 0.00 in Snow Light Snow
5:19 PM 23.0 °F - 17.6 °F 80% 29.82 in 4.0 mi Calm Calm - 0.00 in Snow Light Snow
5:26 PM 23.0 °F - 17.6 °F 80% 29.82 in 5.0 mi Calm Calm - 0.00 in Snow Light Snow
5:34 PM 23.0 °F 18.4 °F 17.6 °F 80% 29.82 in 6.0 mi Variable 3.5 mph - 0.00 in Snow Light Snow
5:54 PM 23.0 °F 13.1 °F 17.1 °F 78% 29.86 in 10.0 mi NW 9.2 mph - 0.00 in   Overcast
6:04 PM 23.0 °F 13.1 °F 15.8 °F 74% 29.83 in 10.0 mi WNW 9.2 mph - N/A   Overcast
6:54 PM 21.9 °F 9.2 °F 14.0 °F 72% 29.87 in 10.0 mi West 13.8 mph 19.6 mph N/A   Overcast
7:42 PM 21.2 °F 6.8 °F 12.2 °F 68% 29.85 in 10.0 mi WNW 17.3 mph - N/A   Overcast
7:54 PM 21.9 °F 9.2 °F 12.9 °F 68% 29.88 in 10.0 mi WNW 13.8 mph - N/A   Overcast
8:39 PM 21.2 °F 12.6 °F 12.2 °F 68% 29.84 in 10.0 mi WNW 6.9 mph - N/A   Overcast
8:54 PM 21.0 °F 10.6 °F 12.0 °F 68% 29.88 in 10.0 mi WNW 9.2 mph - N/A   Overcast
9:54 PM 21.0 °F 13.4 °F 12.0 °F 68% 29.88 in 10.0 mi WNW 5.8 mph - N/A   Overcast
10:54 PM 21.0 °F 14.6 °F 12.0 °F 68% 29.88 in 10.0 mi WNW 4.6 mph - N/A   Overcast
11:54 PM 21.0 °F 12.4 °F 12.9 °F 71% 29.87 in 10.0 mi West 6.9 mph - N/A   Overcast